DL1NER Weather Reports


time (UTC)temp
C
wind
direction
speed
KPH
gust
KPH
rain 1hr
cm
rain 24hr
cm
rain mn
cm
humidity
%
barometer
mb
20260503131011 25 211 6.4 12.9 0.00 0.00 0.00 35 1012.5
20260503081013 20 117 1.6 6.4 0.00 0.00 0.00 44 1015.5
20260503072011 18 103 4.8 11.3 0.00 0.00 0.00 46 1015.5
20260503071011 17 107 4.8 12.9 0.00 0.00 0.00 46 1015.5
20260503055011 10 188 0.0 3.2 0.00 0.00 0.00 66 1015.8
20260503054010 9 187 1.6 4.8 0.00 0.00 0.00 70 1015.6
20260503053010 8 187 1.6 4.8 0.00 0.00 0.00 74 1015.5
20260503052010 8 188 0.0 3.2 0.00 0.00 0.00 80 1015.4
20260503051010 7 188 0.0 0.0 0.00 0.00 0.00 80 1015.4
20260503050010 7 188 0.0 0.0 0.00 0.00 0.00 80 1015.4
20260503045011 7 188 0.0 0.0 0.00 0.00 0.00 78 1015.4
20260503044010 6 188 0.0 0.0 0.00 0.00 0.00 77 1015.4
20260503043011 6 188 0.0 0.0 0.00 0.00 0.00 77 1015.5
20260503042010 6 188 0.0 0.0 0.00 0.00 0.00 76 1015.6
20260503041010 6 188 0.0 0.0 0.00 0.00 0.00 75 1015.6
20260503040010 6 188 0.0 0.0 0.00 0.00 0.00 75 1015.6
20260503035010 6 188 0.0 0.0 0.00 0.00 0.00 75 1015.6
20260503034010 6 188 0.0 0.0 0.00 0.00 0.00 74 1015.7
20260503033010 6 188 0.0 0.0 0.00 0.00 0.00 74 1015.8
20260503032010 6 197 0.0 1.6 0.00 0.00 0.00 73 1015.7
20260503031010 6 197 0.0 1.6 0.00 0.00 0.00 73 1015.7
20260503030010 6 197 0.0 1.6 0.00 0.00 0.00 72 1015.7
20260503025010 7 197 1.6 3.2 0.00 0.00 0.00 72 1015.7
20260503024010 7 197 0.0 1.6 0.00 0.00 0.00 71 1015.8
20260503023009 7 197 1.6 3.2 0.00 0.00 0.00 71 1015.9
20260503022010 7 197 1.6 3.2 0.00 0.00 0.00 71 1016.0
20260503021010 7 197 1.6 1.6 0.00 0.00 0.00 71 1016.1
20260503020010 7 198 0.0 0.0 0.00 0.00 0.00 70 1016.1
20260503015010 7 198 0.0 0.0 0.00 0.00 0.00 70 1016.1
20260503014009 7 198 0.0 0.0 0.00 0.00 0.00 70 1016.1
20260503013010 7 198 0.0 0.0 0.00 0.00 0.00 69 1016.1
20260503012009 7 198 0.0 0.0 0.00 0.00 0.00 68 1016.1
20260503011010 7 198 0.0 0.0 0.00 0.00 0.00 68 1016.1
20260503010010 7 198 0.0 3.2 0.00 0.00 0.00 68 1016.1
20260503005010 8 198 1.6 3.2 0.00 0.00 0.00 68 1016.1
20260503004010 8 198 1.6 3.2 0.00 0.00 0.00 68 1016.2
20260503003010 8 198 1.6 3.2 0.00 0.00 0.00 68 1016.2
20260503002009 8 198 0.0 1.6 0.00 0.00 0.00 69 1016.3
20260503001009 8 198 0.0 0.0 0.00 0.00 0.00 67 1016.3
20260503000010 8 198 0.0 1.6 0.00 0.00 0.00 66 1016.4
20260502235009 8 198 0.0 0.0 0.00 0.00 0.00 66 1016.3
20260502234009 8 198 0.0 0.0 0.00 0.00 0.00 66 1016.4
20260502233010 8 198 0.0 0.0 0.00 0.00 0.00 65 1016.5
20260502232008 9 198 1.6 3.2 0.00 0.00 0.00 65 1016.6